FW6915 Weather Reports


Display with metric or nautical units.
time (UTC)temp
F
wind
direction
speed
MPH
gust
MPH
rain 1hr
in
rain 24hr
in
rain mn
in
humidity
%
barometer
mb
20260502170421 53 302 0.0 0.0 0.07 0.46 0.46 93 1010.7
20260502163910 53 302 0.0 0.0 0.09 0.44 0.44 94 1010.9
20260502163411 53 302 0.0 0.0 0.09 0.43 0.43 94 1010.9
20260502162909 53 302 0.0 0.0 0.09 0.43 0.43 94 1011.0
20260502162405 53 302 0.0 0.0 0.10 0.43 0.42 93 1011.1
20260502161906 53 302 0.0 0.0 0.10 0.42 0.41 93 1011.1
20260502161408 53 302 0.0 0.0 0.10 0.41 0.41 93 1011.2
20260502160908 53 302 0.0 0.0 0.11 0.40 0.40 93 1011.1
20260502160404 53 302 0.0 0.0 0.11 0.39 0.39 93 1011.2
20260502151859 52 123 0.0 0.0 0.12 0.31 0.31 93 1011.6
20260502151354 52 123 0.0 0.0 0.12 0.31 0.30 93 1011.6
20260502150856 52 69 0.0 0.0 0.11 0.29 0.29 93 1011.7
20260502150355 52 80 0.0 0.0 0.12 0.28 0.28 92 1011.7
20260502130325 57 24 0.0 0.0 0.00 0.01 0.01 86 1012.3
20260502123320 58 61 0.0 0.0 0.00 0.01 0.01 87 1012.6
20260502122821 58 174 0.0 0.0 0.01 0.01 0.01 88 1012.6
20260502122323 58 174 0.0 0.0 0.01 0.01 0.01 88 1012.6
20260502122126 58 174 0.0 0.0 0.01 0.01 0.01 89 1012.6
20260502121312 58 174 0.0 0.0 0.01 0.01 0.01 89 1012.7
20260502120813 58 227 0.0 0.0 0.01 0.01 0.01 89 1012.7
20260502120312 58 227 0.0 0.0 0.01 0.01 0.01 89 1012.9
20260502120108 58 227 0.0 0.0 0.01 0.01 0.01 89 1013.0
20260502115314 58 168 0.0 0.0 0.01 0.01 0.01 90 1013.1
20260502114810 58 168 0.0 0.0 0.01 0.01 0.01 89 1013.1
20260502114311 57 168 0.0 0.0 0.01 0.01 0.01 89 1013.2
20260502114124 57 168 0.0 0.0 0.01 0.01 0.01 89 1013.2
20260502113312 57 168 0.0 0.0 0.01 0.01 0.01 89 1013.3
20260502112942 57 168 0.0 0.0 0.00 0.00 0.00 88 1013.6
20260502112908 57 168 0.0 0.0 0.00 0.00 0.00 89 1013.5
20260502111809 57 190 0.0 0.0 0.00 0.00 0.00 89 1013.6
20260502111309 57 189 0.0 0.0 0.00 0.00 0.00 89 1013.7
20260502110809 57 190 0.0 0.0 0.00 0.00 0.00 89 1013.8
20260502110651 57 188 0.0 0.0 0.00 0.00 0.00 88 1013.9
20260502105814 57 188 0.0 0.0 0.00 0.00 0.00 88 1014.0
20260502105626 57 241 0.0 0.0 0.00 0.00 0.00 88 1014.1
20260502104811 57 192 0.0 0.0 0.00 0.00 0.00 88 1014.2
20260502104310 57 189 0.0 0.0 0.00 0.00 0.00 87 1014.2
20260502104127 57 202 0.0 0.0 0.00 0.00 0.00 87 1014.3
20260502103308 56 188 0.0 0.0 0.00 0.00 0.00 87 1014.3
20260502102808 56 190 0.0 0.0 0.00 0.00 0.00 87 1014.4
20260502102615 56 242 0.0 0.0 0.00 0.00 0.00 87 1014.5
20260502101809 56 238 0.0 0.0 0.00 0.00 0.00 88 1014.7
20260502101311 56 129 0.0 0.0 0.00 0.00 0.00 88 1014.7
20260502100810 56 146 0.0 0.0 0.00 0.00 0.00 89 1014.7
20260502100308 55 157 0.0 0.0 0.00 0.00 0.00 89 1014.8
20260502091306 55 81 0.0 0.0 0.00 0.00 0.00 92 1014.9
20260502090802 55 81 0.0 0.0 0.00 0.00 0.00 92 1014.8
20260502090306 55 169 0.0 0.0 0.00 0.00 0.00 93 1014.9
20260502071220 52 149 0.0 0.0 0.00 0.00 0.00 95 1015.7
20260502070717 52 179 0.0 0.0 0.00 0.00 0.00 95 1015.8
20260502070217 52 169 0.0 0.0 0.00 0.00 0.00 95 1015.7
20260502065719 52 167 0.0 0.0 0.00 0.00 0.00 95 1015.8
20260502065217 52 166 0.0 0.0 0.00 0.00 0.00 95 1015.8
20260502064714 52 165 0.0 0.0 0.00 0.00 0.00 95 1015.8
20260502064215 52 175 0.0 0.0 0.00 0.00 0.00 95 1015.9
20260502063720 52 170 0.0 0.0 0.00 0.00 0.00 95 1015.9
20260502063215 51 115 0.0 0.0 0.00 0.00 0.00 95 1015.8
20260502062715 51 134 0.0 0.0 0.00 0.00 0.00 95 1015.8
20260502062213 51 133 0.0 0.0 0.00 0.00 0.00 95 1015.9
20260502061714 51 47 0.0 0.0 0.00 0.00 0.00 95 1015.9
20260502061210 51 115 0.0 0.0 0.00 0.00 0.00 95 1015.9
20260502060714 51 113 0.0 0.0 0.00 0.00 0.00 95 1015.9
20260502060207 51 65 0.0 0.0 0.00 0.00 0.00 95 1015.9
20260502055847 50 167 0.0 0.0 0.00 0.00 0.00 95 1015.9
20260502055803 50 164 0.0 0.0 0.00 0.00 0.00 95 1015.9
20260502054705 50 165 0.0 0.0 0.00 0.00 0.00 95 1015.9
20260502054205 50 165 0.0 0.0 0.00 0.00 0.00 95 1016.0
20260502053703 50 164 0.0 0.0 0.00 0.00 0.00 95 1016.0
20260502053510 50 164 0.0 0.0 0.00 0.00 0.00 95 1016.0
20260502052704 50 160 0.0 0.0 0.00 0.00 0.00 95 1016.2
20260502052516 50 151 0.0 0.0 0.00 0.00 0.00 95 1016.2
20260502052022 50 153 0.0 0.0 0.00 0.00 0.00 95 1016.2
20260502051206 50 114 0.0 0.0 0.00 0.00 0.00 95 1016.3
20260502051029 50 173 0.0 0.0 0.00 0.00 0.00 95 1016.3
20260502050201 50 159 0.0 0.0 0.00 0.00 0.00 95 1016.4
20260502045659 50 121 0.0 0.0 0.00 0.00 0.00 95 1016.4
20260502045157 50 187 0.0 0.0 0.00 0.00 0.00 95 1016.4
20260502044654 50 174 0.0 0.0 0.00 0.00 0.00 95 1016.4
20260502044150 50 276 0.0 0.0 0.00 0.00 0.00 95 1016.5
20260502043651 50 111 0.0 0.0 0.00 0.00 0.00 95 1016.5
20260502043151 50 83 0.0 0.0 0.00 0.00 0.00 95 1016.5
20260502042651 49 140 0.0 0.0 0.00 0.00 0.00 95 1016.6
20260502042149 49 140 0.0 0.0 0.00 0.00 0.00 95 1016.5
20260502041649 48 223 0.0 0.0 0.00 0.00 0.00 95 1016.6
20260502041146 48 223 0.0 0.0 0.00 0.00 0.00 95 1016.7
20260502040645 48 223 0.0 0.0 0.00 0.00 0.00 94 1016.7
20260502040144 47 223 0.0 0.0 0.00 0.00 0.00 94 1016.8
20260502035955 48 223 0.0 0.0 0.00 0.00 0.00 94 1016.8
20260502035143 48 223 0.0 0.0 0.00 0.00 0.00 94 1016.8
20260502034644 48 223 0.0 0.0 0.00 0.00 0.00 94 1016.8
20260502034144 48 223 0.0 0.0 0.00 0.00 0.00 95 1016.9
20260502033645 49 223 0.0 0.0 0.00 0.00 0.00 95 1016.9
20260502033322 47 208 0.0 0.0 0.00 0.00 0.00 95 1017.0
20260502033239 48 219 0.0 0.0 0.00 0.00 0.00 95 1016.9
20260502032138 47 208 0.0 0.0 0.00 0.00 0.00 95 1016.9
20260502031638 46 208 0.0 0.0 0.00 0.00 0.00 95 1016.9
20260502031137 46 207 0.0 0.0 0.00 0.00 0.00 94 1016.9
20260502030636 46 207 0.0 0.0 0.00 0.00 0.00 94 1017.0
20260502030143 46 207 0.0 0.0 0.00 0.00 0.00 94 1017.0
20260502025640 46 207 0.0 0.0 0.00 0.00 0.00 94 1017.0
20260502025138 46 207 0.0 0.0 0.00 0.00 0.00 94 1017.0
20260502024637 46 207 0.0 0.0 0.00 0.00 0.00 94 1017.0
20260502024137 46 207 0.0 0.0 0.00 0.00 0.00 94 1017.1
20260502023636 46 207 0.0 0.0 0.00 0.00 0.00 94 1017.0
20260502023138 46 207 0.0 0.0 0.00 0.00 0.00 94 1017.0
20260502022639 46 207 0.0 0.0 0.00 0.00 0.00 94 1017.1
20260502022137 46 207 0.0 0.0 0.00 0.00 0.00 94 1017.2
20260502021636 46 207 0.0 0.0 0.00 0.00 0.00 94 1017.2
20260502021137 46 207 0.0 0.0 0.00 0.00 0.00 94 1017.3
20260502020640 45 207 0.0 0.0 0.00 0.00 0.00 93 1017.5
20260502020139 45 207 0.0 0.0 0.00 0.00 0.00 93 1017.5
20260502015641 45 207 0.0 0.0 0.00 0.00 0.00 93 1017.7
20260502015447 45 207 0.0 0.0 0.00 0.00 0.00 93 1017.7
20260502014637 45 207 0.0 0.0 0.00 0.00 0.00 93 1017.7
20260502014137 45 207 0.0 0.0 0.00 0.00 0.00 93 1017.7
20260502013948 46 207 0.0 0.0 0.00 0.00 0.00 93 1017.7
20260502013133 46 207 0.0 0.0 0.00 0.00 0.00 92 1017.8
20260502012942 46 207 0.0 0.0 0.00 0.00 0.00 92 1017.9
20260502012132 46 207 0.0 0.0 0.00 0.00 0.00 93 1017.9
20260502011948 47 207 0.0 0.0 0.00 0.00 0.00 93 1018.0
20260502011450 47 207 0.0 0.0 0.00 0.00 0.00 93 1018.0
20260502010631 47 207 0.0 0.0 0.00 0.00 0.00 93 1018.1
20260502010135 47 207 0.0 0.0 0.00 0.00 0.00 93 1018.1
20260502005636 47 207 0.0 0.0 0.00 0.00 0.00 93 1018.2
20260502005135 47 207 0.0 0.0 0.00 0.00 0.00 93 1018.2
20260502004633 47 207 0.0 0.0 0.00 0.00 0.00 93 1018.3
20260502004130 47 207 0.0 0.0 0.00 0.00 0.00 94 1018.5
20260502003625 47 207 0.0 0.0 0.00 0.00 0.00 94 1018.5
20260502003127 47 207 0.0 0.0 0.00 0.00 0.00 94 1018.5
20260502002622 47 207 0.0 0.0 0.00 0.00 0.00 93 1018.5
20260502002442 47 207 0.0 0.0 0.00 0.00 0.00 93 1018.5
20260502001931 47 207 0.0 0.0 0.00 0.00 0.00 93 1018.6
20260502001119 47 207 0.0 0.0 0.00 0.00 0.00 93 1018.6
20260502000617 46 207 0.0 0.0 0.00 0.00 0.00 93 1018.7
20260502000118 46 207 0.0 0.0 0.00 0.00 0.00 93 1018.7
20260501235618 46 207 0.0 0.0 0.00 0.00 0.00 92 1018.8
20260501235117 46 207 0.0 0.0 0.00 0.00 0.00 92 1018.8
20260501234617 46 207 0.0 0.0 0.00 0.00 0.00 92 1018.8
20260501234554 46 207 0.0 0.0 0.00 0.00 0.00 91 1018.8
20260501234550 46 207 0.0 0.0 0.00 0.00 0.00 91 1018.8
20260501233116 46 207 0.0 0.0 0.00 0.00 0.00 91 1018.9
20260501232615 46 207 0.0 0.0 0.00 0.00 0.00 91 1018.8
20260501232422 46 207 0.0 0.0 0.00 0.00 0.00 91 1018.8
20260501231608 46 207 0.0 0.0 0.00 0.00 0.00 91 1018.9
20260501231105 47 207 0.0 0.0 0.00 0.00 0.00 91 1018.8
20260501230609 47 207 0.0 0.0 0.00 0.00 0.00 91 1018.8
20260501225603 47 207 0.0 0.0 0.00 0.00 0.00 91 1018.9
20260501225104 47 207 0.0 0.0 0.00 0.00 0.00 90 1019.0
20260501224604 48 207 0.0 0.0 0.00 0.00 0.00 90 1019.0
20260501224103 48 207 0.0 0.0 0.00 0.00 0.00 90 1019.0
20260501223556 48 207 0.0 0.0 0.00 0.00 0.00 90 1019.1
20260501223052 49 207 0.0 0.0 0.00 0.00 0.00 90 1019.1
20260501222553 49 207 0.0 0.0 0.00 0.00 0.00 90 1019.2
20260501222413 49 207 0.0 0.0 0.00 0.00 0.00 90 1019.2
20260501221552 49 207 0.0 0.0 0.00 0.00 0.00 90 1019.3
20260501221049 49 207 0.0 0.0 0.00 0.00 0.00 90 1019.3
20260501220549 50 207 0.0 0.0 0.00 0.00 0.00 90 1019.3
20260501220050 50 207 0.0 0.0 0.00 0.00 0.00 90 1019.2
20260501215547 50 207 0.0 0.0 0.00 0.00 0.00 89 1019.2
20260501215044 50 207 0.0 0.0 0.00 0.00 0.00 89 1019.2
20260501214543 51 207 0.0 0.0 0.00 0.00 0.00 89 1019.3
20260501214042 51 207 0.0 0.0 0.00 0.00 0.00 89 1019.3
20260501213543 51 207 0.0 0.0 0.00 0.00 0.00 89 1019.3
20260501213039 52 207 0.0 0.0 0.00 0.00 0.00 89 1019.3
20260501212540 52 207 0.0 0.0 0.00 0.00 0.00 89 1019.4
20260501212037 52 207 0.0 0.0 0.00 0.00 0.00 90 1019.5
20260501211535 53 206 0.0 0.0 0.00 0.00 0.00 89 1019.4
20260501211355 53 196 0.0 0.0 0.00 0.00 0.00 90 1019.5
20260501210527 53 225 0.0 0.0 0.00 0.00 0.00 89 1019.5
20260501210021 53 236 0.0 0.0 0.00 0.00 0.00 89 1019.5
20260501205514 53 244 0.0 0.0 0.00 0.00 0.00 89 1019.4
20260501205013 53 248 0.0 0.0 0.00 0.00 0.00 89 1019.4
20260501204511 53 248 0.0 0.0 0.00 0.00 0.00 88 1019.4
20260501204011 54 248 0.0 0.0 0.00 0.00 0.00 88 1019.3
20260501203510 54 248 0.0 0.0 0.00 0.00 0.00 88 1019.3
20260501203011 54 248 0.0 0.0 0.00 0.00 0.00 88 1019.3
20260501202511 54 248 0.0 0.0 0.00 0.00 0.00 88 1019.2
20260501202008 54 248 0.0 0.0 0.00 0.00 0.00 88 1019.2
20260501201506 54 248 0.0 0.0 0.00 0.00 0.00 88 1019.2
20260501201004 54 248 0.0 0.0 0.00 0.00 0.00 88 1019.2
20260501200505 54 248 0.0 0.0 0.00 0.00 0.00 87 1019.1
20260501200004 54 248 0.0 0.0 0.00 0.00 0.00 88 1019.1
20260501195505 54 249 0.0 0.0 0.00 0.00 0.00 87 1019.0
20260501195003 54 248 0.0 0.0 0.00 0.00 0.00 87 1019.0
20260501194500 54 246 0.0 0.0 0.00 0.00 0.00 87 1018.9
20260501194001 54 245 0.0 0.0 0.00 0.00 0.00 86 1018.8
20260501193455 55 246 0.0 0.0 0.00 0.00 0.00 86 1018.8
20260501193308 55 246 0.0 0.0 0.00 0.00 0.00 86 1018.7
20260501192806 55 250 0.0 0.0 0.00 0.00 0.00 86 1018.7
20260501191952 55 256 0.0 0.0 0.00 0.00 0.00 85 1018.7
20260501191450 55 202 0.0 0.0 0.00 0.00 0.00 85 1018.7
20260501190947 56 245 0.0 0.0 0.00 0.00 0.00 85 1018.7
20260501190448 56 239 0.0 0.0 0.00 0.00 0.00 85 1018.6
20260501185949 56 250 0.0 0.0 0.00 0.00 0.00 85 1018.6
20260501185803 56 238 0.0 0.0 0.00 0.00 0.00 85 1018.5
20260501184949 56 197 0.0 0.0 0.00 0.00 0.00 84 1018.5
20260501184810 56 248 0.0 0.0 0.00 0.00 0.00 84 1018.5
20260501183949 56 246 0.0 0.0 0.00 0.00 0.00 84 1018.5
20260501183445 57 242 0.0 0.0 0.00 0.00 0.00 84 1018.5
20260501183304 57 201 0.0 0.0 0.00 0.00 0.00 83 1018.5
20260501182441 57 257 0.0 0.0 0.00 0.00 0.00 83 1018.5
20260501181943 58 257 0.0 0.0 0.00 0.00 0.00 83 1018.5
20260501181443 58 215 0.0 0.0 0.00 0.00 0.00 82 1018.5
20260501180941 58 247 0.0 0.0 0.00 0.00 0.00 82 1018.5
20260501180454 59 250 0.0 0.0 0.00 0.00 0.00 82 1018.5
20260501180258 59 248 0.0 0.0 0.00 0.00 0.00 81 1018.5
20260501175442 59 237 0.0 0.0 0.00 0.00 0.00 81 1018.4
20260501174944 59 219 0.0 0.0 0.00 0.00 0.00 81 1018.5
20260501174441 59 250 0.0 0.0 0.00 0.00 0.00 80 1018.4
20260501173941 60 236 0.0 0.0 0.00 0.00 0.00 80 1018.5
20260501173442 60 221 0.0 0.0 0.00 0.00 0.00 80 1018.5
20260501172941 60 252 0.0 0.0 0.00 0.00 0.00 79 1018.5